Greenville/Spartanburg, SC

11:53 PM EDT on April 19, 2018 (GMT -0400)
Greenville-Spartanburg International

Weather History for KGSP - February, 2013

Change the Weather History Date:

Tuesday, February 26, 2013

  Actual Average Record
Temperature  
Mean Temperature 38 °F 48 °F  
Max Temperature 43 °F 59 °F 80 °F (1996)
Min Temperature 33 °F 37 °F 12 °F (1974)
Degree Days  
Heating Degree Days 27 17  
Month to date heating degree days 550 506  
Since 1 July heating degree days 2148 2416  
Cooling Degree Days 0 0  
Month to date cooling degree days 0 0  
Year to date cooling degree days 0 0  
Moisture  
Dew Point 35 °F    
Average Humidity 95    
Maximum Humidity 100    
Minimum Humidity 89    
Precipitation  
Precipitation 1.46 in 0.14 in 2.50 in (1890)
Month to date precipitation 3.88 3.67  
Year to date precipitation 9.15 7.49  
Snow  
Snow 0.00 in 0.00 in 8.00 in (2004)
Month to date snowfall 2.0 0.9  
Since 1 July snowfall 2.0 3.7  
Snow Depth 0.00 in    
Sea Level Pressure  
Sea Level Pressure 29.75 in    
Wind  
Wind Speed 12 mph (NE)    
Max Wind Speed 25 mph    
Max Gust Speed 35 mph    
Visibility 4 miles    
Events Rain    
T = Trace of Precipitation, MM = Missing Value Source: NWS Daily Summary

Daily Weather History Graph

Daily Weather History Graph

Search for Another Location

Airport or City:

Astronomy

Feb. 26, 2013 Rise Set
Actual Time 7:01 AM EST 6:22 PM EST
Civil Twilight 6:36 AM EST 6:47 PM EST
Nautical Twilight 6:06 AM EST 7:17 PM EST
Astronomical Twilight 5:37 AM EST 7:46 PM EST
Moon 7:32 PM EST (2/26) 7:07 AM EST (2/26)
Length of Visible Light 12h 11m
Length of Day
11h 20m
Full, 99% of the Moon is Illuminated
Feb 26
Full
Mar 4
Last Quarter
Mar 11
New
Mar 19
First Quarter
Mar 27
Full

Hourly Weather History & Observations

Time (EST) Temp. Windchill Dew Point Humidity Pressure Visibility Wind Dir Wind Speed Gust Speed Precip Events Conditions
12:53 AM 35.1 °F 25.5 °F 32.0 °F 89% 30.00 in 3.0 mi NE 15.0 mph - 0.01 in   Overcast
1:09 AM 33.8 °F 22.5 °F 32.0 °F 93% 29.98 in 4.0 mi NE 19.6 mph - 0.00 in   Overcast
1:37 AM 33.8 °F 22.8 °F 32.0 °F 93% 29.96 in 2.5 mi NE 18.4 mph - 0.02 in Rain Light Rain
1:45 AM 33.8 °F 23.5 °F 32.0 °F 93% 29.96 in 3.0 mi NE 16.1 mph 25.3 mph 0.02 in   Overcast
1:53 AM 34.0 °F 23.4 °F 32.0 °F 92% 29.96 in 4.0 mi NE 17.3 mph 24.2 mph 0.02 in   Overcast
2:40 AM 33.8 °F 22.5 °F 32.0 °F 93% 29.92 in 2.5 mi NE 19.6 mph 27.6 mph 0.03 in Rain Rain
2:53 AM 33.1 °F 21.5 °F 32.0 °F 96% 29.93 in 4.0 mi NE 19.6 mph 34.5 mph 0.05 in Rain Light Rain
3:04 AM 33.8 °F 23.5 °F 32.0 °F 93% 29.92 in 2.0 mi NE 16.1 mph 26.5 mph 0.05 in Rain Heavy Rain
3:20 AM 33.8 °F 23.2 °F 32.0 °F 93% 29.92 in 4.0 mi NE 17.3 mph 27.6 mph 0.12 in Rain Rain
3:53 AM 33.1 °F 24.4 °F 30.9 °F 92% 29.93 in 5.0 mi NNE 11.5 mph 21.9 mph 0.18 in Rain Rain
4:53 AM 33.1 °F 22.2 °F 30.9 °F 92% 29.90 in 4.0 mi NNE 17.3 mph 29.9 mph 0.19 in Rain Light Freezing Rain
5:53 AM 33.1 °F 21.9 °F 30.9 °F 92% 29.85 in 7.0 mi NE 18.4 mph 31.1 mph 0.15 in Rain Rain
6:53 AM 33.1 °F 21.5 °F 32.0 °F 96% 29.85 in 3.0 mi NE 19.6 mph 23.0 mph 0.24 in Rain Heavy Rain
7:02 AM 33.8 °F 23.5 °F 32.0 °F 93% 29.84 in 3.0 mi NE 16.1 mph 25.3 mph 0.06 in Rain Heavy Rain
7:39 AM 33.8 °F 22.2 °F 32.0 °F 93% 29.79 in 1.0 mi NE 20.7 mph 26.5 mph 0.25 in Rain Heavy Rain
7:53 AM 34.0 °F 23.4 °F 32.0 °F 92% 29.81 in 1.0 mi NE 17.3 mph 32.2 mph 0.33 in Rain Heavy Rain
8:18 AM 33.8 °F 22.8 °F 32.0 °F 93% 29.81 in 3.0 mi NE 18.4 mph 24.2 mph 0.11 in Rain Heavy Rain
8:53 AM 34.0 °F 22.4 °F 33.1 °F 96% 29.79 in 6.0 mi NE 20.7 mph 27.6 mph 0.16 in Rain Light Rain
9:53 AM 35.1 °F 25.2 °F 33.1 °F 92% 29.76 in 10.0 mi NE 16.1 mph 24.2 mph 0.03 in Rain Light Rain
10:53 AM 36.0 °F 26.3 °F 34.0 °F 93% 29.69 in 5.0 mi NE 16.1 mph 24.2 mph 0.01 in Rain Light Rain
11:50 AM 35.6 °F 25.5 °F 33.8 °F 93% 29.67 in 1.8 mi NE 17.3 mph 25.3 mph 0.01 in Rain Light Rain
11:53 AM 36.0 °F 26.7 °F 35.1 °F 97% 29.68 in 1.8 mi NE 15.0 mph 25.3 mph 0.01 in Rain Light Rain
11:59 AM 35.6 °F 27.5 °F 35.6 °F 100% 29.68 in 1.5 mi NE 11.5 mph 20.7 mph 0.00 in Rain Rain
12:03 PM 35.6 °F 27.5 °F 35.6 °F 100% 29.67 in 1.5 mi NNE 11.5 mph 20.7 mph 0.01 in Rain Rain
12:53 PM 37.0 °F 28.5 °F 36.0 °F 96% 29.66 in 4.0 mi NNE 13.8 mph - 0.07 in Rain Light Rain
1:53 PM 37.9 °F 30.9 °F 37.0 °F 97% 29.62 in 7.0 mi NE 10.4 mph - 0.01 in   Overcast
2:18 PM 39.2 °F 32.5 °F 37.4 °F 93% 29.60 in 1.5 mi NNE 10.4 mph 16.1 mph 0.00 in Rain Light Rain
2:53 PM 39.0 °F 34.0 °F 37.9 °F 96% 29.62 in 1.5 mi North 6.9 mph - 0.00 in   Overcast
3:00 PM 39.2 °F 32.0 °F 37.4 °F 93% 29.60 in 4.0 mi NNE 11.5 mph 16.1 mph N/A   Overcast
3:15 PM 39.2 °F 35.0 °F 39.2 °F 100% 29.61 in 1.5 mi Variable 5.8 mph - N/A   Overcast
3:53 PM 39.9 °F 35.8 °F 37.9 °F 93% 29.62 in 1.5 mi North 5.8 mph - N/A   Overcast
4:10 PM 39.2 °F 37.0 °F 39.2 °F 100% 29.60 in 5.0 mi Variable 3.5 mph - N/A   Overcast
4:53 PM 39.9 °F - 39.0 °F 97% 29.60 in 10.0 mi Calm Calm - N/A   Overcast
5:53 PM 41.0 °F 39.0 °F 39.0 °F 93% 29.61 in 10.0 mi North 3.5 mph - N/A   Overcast
6:53 PM 41.0 °F - 39.9 °F 96% 29.64 in 10.0 mi Calm Calm - N/A   Overcast
7:53 PM 41.0 °F - 39.9 °F 96% 29.64 in 10.0 mi Calm Calm - N/A   Overcast
8:53 PM 41.0 °F 38.0 °F 39.9 °F 96% 29.65 in 3.0 mi SSE 4.6 mph - N/A   Overcast
9:07 PM 41.0 °F 38.0 °F 41.0 °F 100% 29.64 in 1.2 mi South 4.6 mph - N/A   Overcast
9:53 PM 42.1 °F 37.7 °F 42.1 °F 100% 29.66 in 6.0 mi SSW 6.9 mph - N/A   Overcast
10:42 PM 42.8 °F 38.6 °F 41.0 °F 93% 29.65 in 8.0 mi SW 6.9 mph - N/A   Scattered Clouds
10:53 PM 41.0 °F 35.8 °F 39.9 °F 96% 29.66 in 7.0 mi SSW 8.1 mph - N/A   Scattered Clouds
11:53 PM 41.0 °F 33.5 °F 37.9 °F 89% 29.65 in 10.0 mi SW 13.8 mph - N/A   Clear